Regional Weather Roundup
Issued by NWS

Home | Current Version | Previous Version | Text Only | Print | Product List | Glossary On
Versions: 1 2 3 4 5 6 7 8 9 10 11 12 13 14 15 16 17 18 19 20 21 22 23 24 25 26 27 28 29 30 31 32 33 34 35 36 37 38 39 40 41 42 43 44 45 46 47 48 49 50
000
ASUS43 KTOP 290959
RWRKS

WEATHER ROUNDUP FOR KANSAS
NATIONAL WEATHER SERVICE GOODLAND KS
500 AM CDT MON AUG 29 2016

NOTE:  "FAIR" INDICATES FEW OR NO CLOUDS BELOW 12,000 FEET WITH NO
SIGNIFICANT WEATHER AND/OR OBSTRUCTIONS TO VISIBILITY.

KSZ001>006-013>018-027>032-041>047-291100-
NORTHWEST KANSAS

CITY           SKY/WX    TMP DP  RH WIND       PRES   REMARKS
GOODLAND       CLOUDY    61  59  93 SW3       30.17F
HAYS           CLOUDY    66  59  77 NE6       30.16S
HILL CITY      CLOUDY    67  65  93 E6        30.17S
RUSSELL        CLOUDY    67  66  97 E5        30.14F
$$

KSZ061>065-074>080-084>089-291100-
SOUTHWEST KANSAS

CITY           SKY/WX    TMP DP  RH WIND       PRES   REMARKS
DODGE CITY     CLOUDY    65  64  97 E6        30.17R FOG
ELKHART          N/A     63  57  81 S6          N/A
GARDEN CITY    MOCLDY    63  61  93 E5        30.16S
GREAT BEND     MOCLDY    68  61  77 CALM      30.14S
LIBERAL        CLOUDY    66  61  82 SW3       30.17R
$$

KSZ066>073-081>083-090>101-291100-
SOUTHEAST KANSAS

CITY           SKY/WX    TMP DP  RH WIND       PRES   REMARKS
CHANUTE        CLEAR     69  68  96 CALM      30.11S
COFFEYVILLE    CLEAR     69  68  96 N5        30.10R
HUTCHINSON     CLOUDY    71  67  87 CALM      30.13R
MEDICINE LODGE   N/A     68  66  93 N5        30.12S
NEWTON         CLEAR     69  69 100 CALM      30.13F FOG
PARSONS        CLEAR     70  68  93 CALM      30.12R
WICHITA INTL   PTCLDY    72  69  90 CALM      30.12S
WICHITA JABRA  CLEAR     68  68 100 E5        30.12S FOG
WINFIELD       CLEAR     72  68  87 E3        30.13R
$$

KSZ007>012-019>026-033>040-048>060-102>105-291100-
NORTHEAST KANSAS

CITY           SKY/WX    TMP DP  RH WIND       PRES   REMARKS
CONCORDIA      CLOUDY    68  65  90 CALM      30.12F
EMPORIA        CLEAR     68  67  96 SE5       30.13R
LAWRENCE       PTCLDY    69  68  96 CALM      30.13S
MANHATTAN      PTCLDY    73  70  90 CALM      30.11F
OLATHE IND     CLEAR     72  70  93 SE6       30.14S
OLATHE EXE     CLEAR     70  69  97 CALM      30.14S
SALINA         PTCLDY    72  70  93 NW5       30.13F
TOPEKA BILLARD CLEAR     72  68  87 CALM      30.13S
TOPEKA FORBES  CLEAR     72  69  90 CALM      30.13S
$$




USA.gov is the U.S. government's official web portal to all federal, state and local government web resources and services.